Flag for U.S.A. Weather past 2 weeks in St. George, Utah, U.S.A.

Now
73 °F

Clear.


Feels Like: 77 °F
Forecast: 67 / 91 °F
Wind: No wind

Location: Saint George

Current Time: Sep 17, 2014 at 6:24:24 AM

Latest Report: Sep 17, 2014 at 5:55 AM


Visibility: 10 mi

Pressure: 29.94 "Hg

Humidity: 50%

Dew point: 54 °F

Location of St. GeorgeLocation

Historic Weather in St. George — Graph

°F

St. George temperature yesterday

Maximum temperature yesterday: 99 °F (at 5:15 PM)
Minimum temperature yesterday: 66 °F (at 7:15 AM)
Average temperature yesterday: 83 °F

Past Weeks' High & Low Weather Summary

 TemperatureHumidityPressure
High99 °F (Sep 2, 3:55 PM)83% (Sep 8, 6:35 PM)30.12 "Hg (Sep 8, 6:35 PM)
Low61 °F (Sep 11, 6:35 AM)11% (Sep 3, 6:15 PM)29.72 "Hg (Sep 3, 6:15 PM)
Average80 °F33%29.96 "Hg
* Reported Sep 2 5:15 AM — Sep 17 5:35 AM, St. George, Weather by CustomWeather, © 2014

Note: Actual official high and low records may vary slightly from our data, if they occured in-between our weather recording intervals... More about our weather records

Advertising

St. George weather history for previous 24 hours

 ConditionsComfort  
Time TempWeatherWind HumidityBarometerVisibility
5:35 AM
Sep 17
73 °FClear.3 mph50%29.94 "Hg10 mi
5:15 AM75 °FClear.3 mph47%29.94 "Hg10 mi
4:55 AM75 °FClear.No wind47%29.94 "Hg10 mi
4:35 AM77 °FClear.No wind44%29.94 "Hg10 mi
4:15 AM79 °FClear.No wind42%29.94 "Hg10 mi
3:55 AM77 °FClear.No wind44%29.94 "Hg10 mi
3:35 AM79 °FClear.3 mph42%29.95 "Hg10 mi
3:15 AM79 °FClear.5 mph42%29.95 "Hg10 mi
2:55 AM79 °FClear.7 mph42%29.96 "Hg10 mi
2:35 AM81 °FClear.9 mph39%29.96 "Hg10 mi
2:15 AM81 °FClear.9 mph39%29.97 "Hg10 mi
1:55 AM81 °FClear.9 mph42%29.97 "Hg10 mi
1:35 AM82 °FClear.6 mph40%29.97 "Hg10 mi
1:15 AM82 °FClear.8 mph40%29.97 "Hg10 mi
12:55 AM84 °FClear.10 mph37%29.96 "Hg10 mi
12:35 AM84 °FClear.13 mph35%29.96 "Hg10 mi
12:15 AM84 °FClear.15 mph35%29.95 "Hg10 mi
11:55 PM
Sep 16
84 °FClear.15 mph35%29.95 "Hg10 mi
11:35 PM86 °FClear.9 mph33%29.94 "Hg10 mi
11:15 PM86 °FClear.9 mph33%29.93 "Hg10 mi
10:55 PM86 °FClear.14 mph35%29.93 "Hg10 mi
10:35 PM84 °FPassing clouds.24 mph35%29.92 "Hg10 mi
10:15 PM84 °FClear.3 mph31%29.90 "Hg10 mi
9:55 PM84 °FClear.6 mph29%29.90 "Hg10 mi
9:15 PM84 °FClear.3 mph29%29.90 "Hg10 mi
8:55 PM90 °FClear.7 mph24%29.89 "Hg10 mi
8:35 PM90 °FSunny.7 mph24%29.88 "Hg10 mi
8:15 PM91 °FSunny.9 mph23%29.87 "Hg10 mi
7:55 PM91 °FSunny.8 mph23%29.87 "Hg10 mi
7:35 PM95 °FSunny.7 mph18%29.86 "Hg10 mi
7:15 PM97 °FSunny.5 mph17%29.86 "Hg10 mi
6:55 PM97 °FSunny.5 mph17%29.86 "Hg10 mi
6:35 PM97 °FSunny.5 mph17%29.86 "Hg10 mi
6:15 PM97 °FSunny.5 mph17%29.86 "Hg10 mi
5:55 PM97 °FSunny.6 mph17%29.86 "Hg10 mi
5:35 PM99 °FSunny.6 mph17%29.87 "Hg10 mi
5:15 PM99 °FSunny.8 mph17%29.87 "Hg10 mi
4:55 PM97 °FSunny.7 mph18%29.88 "Hg10 mi
4:35 PM97 °FSunny.7 mph18%29.89 "Hg10 mi
4:15 PM97 °FSunny.5 mph18%29.90 "Hg10 mi
3:55 PM97 °FSunny.3 mph18%29.92 "Hg10 mi
3:35 PM95 °FSunny.8 mph19%29.93 "Hg10 mi
2:55 PM93 °FSunny.5 mph20%29.95 "Hg10 mi
2:35 PM93 °FSunny.5 mph20%29.97 "Hg10 mi
2:15 PM91 °FSunny.3 mph23%29.98 "Hg10 mi
1:55 PM91 °FSunny.3 mph23%29.99 "Hg10 mi
1:35 PM90 °FSunny.3 mph24%30.00 "Hg10 mi
1:15 PM90 °FSunny.7 mph24%30.01 "Hg10 mi
12:55 PM88 °FSunny.No wind24%30.02 "Hg10 mi
12:35 PM86 °FSunny.3 mph25%30.03 "Hg10 mi
11:55 AM84 °FSunny.5 mph25%30.04 "Hg10 mi
11:35 AM82 °FSunny.3 mph26%30.05 "Hg10 mi
11:15 AM81 °FSunny.6 mph28%30.06 "Hg10 mi
10:55 AM79 °FSunny.No wind30%30.06 "Hg10 mi
10:35 AM79 °FSunny.No wind30%30.06 "Hg10 mi
10:15 AM75 °FSunny.3 mph31%30.07 "Hg10 mi
9:55 AM75 °FSunny.No wind31%30.07 "Hg10 mi
9:35 AM73 °FSunny.No wind33%30.07 "Hg10 mi
9:15 AM72 °FSunny.No wind36%30.07 "Hg10 mi
8:55 AM72 °FSunny.No wind36%30.06 "Hg10 mi
8:35 AM70 °FSunny.3 mph40%30.06 "Hg10 mi
8:15 AM70 °FClear.No wind38%30.06 "Hg10 mi
7:55 AM68 °FClear.6 mph38%30.06 "Hg10 mi
7:35 AM68 °FClear.3 mph38%30.05 "Hg10 mi
7:15 AM66 °FClear.6 mph37%30.04 "Hg10 mi
6:55 AM70 °FClear.6 mph33%30.04 "Hg10 mi
6:35 AM72 °FClear.5 mph36%30.04 "Hg10 mi
Weather by CustomWeather, © 2014

See weather overviewHow to use our weather pages